Terug naar catalogus

AISHENXING LSP 2

ActiefWetenschapSSO
NORAD 65491·PAYLOAD·🇨🇳 China
Deze satellietnaam is nog niet bevestigd door officiële bronnen.

Gelanceerd Sep 5, 2025 vanaf Jiuquan Satellite Launch Center

Loading…

Volgende Passages (komende 24 uur)

TLE

VersSource: Space-Track

Epoch: Sep 14, 2026, 07:46 UTC

1 65491U 25197D   26257.32411053  .00008936  00000-0  31422-3 0  9991
2 65491  97.4072  84.4074 0014090  55.7712 304.4861 15.29494121 56975

Volg AISHENXING LSP 2 in realtime met AllMySat

Download on the App Store